KF4KUL Weather Reports


time (UTC)temp
C
wind
direction
speed
KPH
gust
KPH
rain 1hr
cm
rain 24hr
cm
rain mn
cm
humidity
%
barometer
mb
20260504201707 28 3 0.0 0.0 0.00 0.00 0.00 45 1014.0
20260504200206 29 190 0.0 0.0 0.00 0.00 0.00 40 1014.2
20260504194705 28 80 1.6 6.4 0.00 0.00 0.00 33 1014.4
20260504193204 28 201 8.0 12.9 0.00 0.00 0.00 39 1014.7
20260504191703 27 129 3.2 0.0 0.00 0.00 0.00 40 1014.7
20260504190202 28 128 0.0 0.0 0.00 0.00 0.00 42 1014.9
20260504184701 28 204 3.2 4.8 0.00 0.00 0.00 42 1015.1
20260504183200 27 82 8.0 8.0 0.00 0.00 0.00 43 1015.4
20260504181659 27 211 4.8 9.7 0.00 0.00 0.00 43 1015.7
20260504180158 27 188 4.8 4.8 0.00 0.00 0.00 42 1015.9
20260504174657 26 143 1.6 14.5 0.00 0.00 0.00 45 1015.9
20260504173156 27 82 4.8 0.0 0.00 0.00 0.00 42 1016.0
20260504171655 27 162 3.2 11.3 0.00 0.00 0.00 45 1016.1
20260504170154 26 91 6.4 8.0 0.00 0.00 0.00 46 1016.4
20260504160150 25 87 8.0 9.7 0.00 0.00 0.00 51 1017.1
20260504150146 25 35 8.0 17.7 0.00 0.00 0.00 53 1017.2
20260504140142 22 100 6.4 19.3 0.00 0.00 0.00 63 1017.2
20260504130138 20 91 6.4 17.7 0.00 0.00 0.00 70 1016.8
20260504120134 17 91 1.6 12.9 0.00 0.00 0.00 86 1016.6
20260504110130 15 101 0.0 0.0 0.00 0.00 0.00 91 1016.2
20260504100126 15 101 0.0 0.0 0.00 0.00 0.00 90 1015.8
20260504090122 16 101 0.0 0.0 0.00 0.00 0.00 88 1016.2
20260504081619 16 101 0.0 0.0 0.00 0.00 0.00 87 1016.0
20260504080118 16 101 0.0 0.0 0.00 0.00 0.00 87 1016.0
20260504070114 17 101 0.0 0.0 0.00 0.00 0.00 84 1016.4
20260504060110 17 101 0.0 0.0 0.00 0.00 0.00 82 1016.4
20260504050106 19 101 0.0 0.0 0.00 0.00 0.00 78 1016.9
20260504044605 19 114 0.0 0.0 0.00 0.00 0.00 77 1016.9
20260504043104 20 114 0.0 4.8 0.00 0.00 0.00 75 1017.1
20260504041603 21 111 0.0 0.0 0.00 0.00 0.00 74 1017.3
20260504034601 21 165 0.0 4.8 0.00 0.00 0.00 72 1017.5
20260504033100 21 173 0.0 0.0 0.00 0.00 0.00 73 1017.5
20260504031559 20 84 0.0 0.0 0.00 0.00 0.00 74 1017.4
20260504030058 20 84 0.0 0.0 0.00 0.00 0.00 74 1017.1
20260504024557 20 84 0.0 0.0 0.00 0.00 0.00 74 1017.1
20260504023056 20 84 0.0 0.0 0.00 0.00 0.00 75 1017.1
20260504021555 20 84 0.0 0.0 0.00 0.00 0.00 74 1016.8
20260504020054 20 84 0.0 0.0 0.00 0.00 0.00 73 1016.6
20260504014553 21 84 0.0 0.0 0.00 0.00 0.00 72 1016.5
20260504013052 21 84 0.0 0.0 0.00 0.00 0.00 70 1016.3
20260504011551 21 84 0.0 0.0 0.00 0.00 0.00 68 1016.0
20260504010050 22 84 0.0 0.0 0.00 0.00 0.00 67 1015.9
20260504004549 21 84 0.0 0.0 0.00 0.00 0.00 67 1015.7
20260504003048 22 84 0.0 0.0 0.00 0.00 0.00 66 1015.5
20260504001547 22 84 0.0 0.0 0.00 0.00 0.00 65 1015.4
20260504000046 23 335 0.0 9.7 0.00 0.00 0.00 64 1015.3
20260503234545 23 6 6.4 14.5 0.00 0.00 0.00 63 1015.3
20260503233044 23 357 8.0 12.9 0.00 0.00 0.00 62 1015.2
20260503231543 24 8 6.4 14.5 0.00 0.00 0.00 61 1015.2
20260503230042 24 359 0.0 4.8 0.00 0.00 0.00 60 1015.1
20260503224541 24 359 0.0 0.0 0.00 0.00 0.00 60 1015.1
20260503223040 24 359 0.0 9.7 0.00 0.00 0.00 59 1015.1
20260503221539 24 6 0.0 9.7 0.00 0.00 0.00 60 1015.1
20260503220038 25 359 0.0 9.7 0.00 0.00 0.00 59 1015.3
20260503214537 25 359 0.0 11.3 0.00 0.00 0.00 58 1015.1
20260503213036 25 357 0.0 0.0 0.00 0.00 0.00 56 1015.1
20260503211535 25 357 0.0 0.0 0.00 0.00 0.00 57 1015.1
20260503210034 25 357 0.0 0.0 0.00 0.00 0.00 56 1015.1
20260503204533 25 69 9.7 17.7 0.00 0.00 0.00 56 1015.2
20260503203032 26 359 8.0 14.5 0.00 0.00 0.00 55 1015.2